User: anonymous   Login
Location: Unspecified
(0.0000°N, 0.0000°E)
Time: 22:47:05
(UTC+00:00)
Language:

Geosat - Orbit

View from above orbital plane
View from above orbital plane
View from above satellite
View from above satellite

Ground track
Ground track

The orbit data is extracted from the following two-line orbital elements,

1 15595U 85021A   17113.67988558 -.00000019 +00000-0 +38473-4 0  9990
2 15595 108.0459 342.7889 0001304 255.3919 136.7801 14.38017920682284
Epoch (UTC): 23 April 2017 16:19:02
Eccentricity: 0.0001304
inclination: 108.0459°
perigee height: 764 km
apogee height: 766 km
right ascension of ascending node: 342.7889°
argument of perigee: 255.3919°
revolutions per day: 14.38017920
mean anomaly at epoch: 136.7801°
orbit number at epoch: 68228

The dashed part of the orbit path shows where the satellite is in the earth's shadow,  

DLR